Time,TemperatureF,DewpointF,PressureIn,WindDirection,WindDirectionDegrees,WindSpeedMPH,WindSpeedGustMPH,Humidity,HourlyPrecipIn,Conditions,Clouds,dailyrainin,SolarRadiationWatts/m^2,SoftwareType,DateUTC
2013-09-18 00:22:00,46.0,38.0,-100.00,SSE,165,3.0,7.0,73,0.00,,,0.00,0.000000,,2013-09-18 06:22:00,
2013-09-18 00:33:00,46.0,38.0,-100.00,SSE,165,3.0,7.0,73,0.00,,,0.00,0.000000,,2013-09-18 06:33:00,
2013-09-18 00:42:00,46.0,38.0,-100.00,SSE,165,3.0,7.0,73,0.00,,,0.00,0.000000,,2013-09-18 06:42:00,
2013-09-18 00:52:00,46.0,38.0,-100.00,SSE,165,3.0,7.0,73,0.00,,,0.00,0.000000,,2013-09-18 06:52:00,
2013-09-18 01:22:00,46.0,38.0,-100.00,SSE,161,3.0,8.0,73,0.00,,,0.00,0.000000,,2013-09-18 07:22:00,
2013-09-18 01:32:00,46.0,38.0,-100.00,SSE,161,3.0,8.0,73,0.00,,,0.00,0.000000,,2013-09-18 07:32:00,
2013-09-18 01:42:00,46.0,38.0,-100.00,SSE,161,3.0,8.0,73,0.00,,,0.00,0.000000,,2013-09-18 07:42:00,
2013-09-18 01:52:00,46.0,38.0,-100.00,SSE,161,3.0,8.0,73,0.00,,,0.00,0.000000,,2013-09-18 07:52:00,
2013-09-18 02:23:00,45.0,38.0,-100.00,SSE,159,5.0,9.0,76,0.00,,,0.00,0.000000,,2013-09-18 08:23:00,
2013-09-18 02:32:00,45.0,38.0,-100.00,SSE,159,5.0,9.0,76,0.00,,,0.00,0.000000,,2013-09-18 08:32:00,
2013-09-18 02:42:00,45.0,38.0,-100.00,SSE,159,5.0,9.0,76,0.00,,,0.00,0.000000,,2013-09-18 08:42:00,
2013-09-18 02:52:00,45.0,38.0,-100.00,SSE,159,5.0,9.0,76,0.00,,,0.00,0.000000,,2013-09-18 08:52:00,
2013-09-18 03:22:00,42.0,38.0,-100.00,South,186,4.0,9.0,85,0.00,,,0.00,0.000000,,2013-09-18 09:22:00,
2013-09-18 03:33:00,42.0,38.0,-100.00,South,186,4.0,9.0,85,0.00,,,0.00,0.000000,,2013-09-18 09:33:00,
2013-09-18 03:43:00,42.0,38.0,-100.00,South,186,4.0,9.0,85,0.00,,,0.00,0.000000,,2013-09-18 09:43:00,
2013-09-18 03:53:00,42.0,38.0,-100.00,South,186,4.0,9.0,85,0.00,,,0.00,0.000000,,2013-09-18 09:53:00,
2013-09-18 04:23:00,43.0,39.0,-100.00,SSE,153,5.0,9.0,86,0.00,,,0.00,0.000000,,2013-09-18 10:23:00,
2013-09-18 04:33:00,43.0,39.0,-100.00,SSE,153,5.0,9.0,86,0.00,,,0.00,0.000000,,2013-09-18 10:33:00,
2013-09-18 04:43:00,43.0,39.0,-100.00,SSE,153,5.0,9.0,86,0.00,,,0.00,0.000000,,2013-09-18 10:43:00,
2013-09-18 04:53:00,43.0,39.0,-100.00,SSE,153,5.0,9.0,86,0.00,,,0.00,0.000000,,2013-09-18 10:53:00,
2013-09-18 05:22:00,43.0,38.0,-100.00,SSW,192,4.0,8.0,83,0.00,,,0.00,0.000000,,2013-09-18 11:22:00,
2013-09-18 05:33:00,43.0,38.0,-100.00,SSW,192,4.0,8.0,83,0.00,,,0.00,0.000000,,2013-09-18 11:33:00,
2013-09-18 05:42:00,43.0,38.0,-100.00,SSW,192,4.0,8.0,83,0.00,,,0.00,0.000000,,2013-09-18 11:42:00,
2013-09-18 05:52:00,43.0,38.0,-100.00,SSW,192,4.0,8.0,83,0.00,,,0.00,0.000000,,2013-09-18 11:52:00,
2013-09-18 06:22:00,45.0,37.0,-100.00,WNW,297,1.0,9.0,74,0.00,,,0.00,0.000000,,2013-09-18 12:22:00,
2013-09-18 06:32:00,45.0,37.0,-100.00,WNW,297,1.0,9.0,74,0.00,,,0.00,0.000000,,2013-09-18 12:32:00,
2013-09-18 06:42:00,45.0,37.0,-100.00,WNW,297,1.0,9.0,74,0.00,,,0.00,0.000000,,2013-09-18 12:42:00,
2013-09-18 06:52:00,45.0,37.0,-100.00,WNW,297,1.0,9.0,74,0.00,,,0.00,0.000000,,2013-09-18 12:52:00,
2013-09-18 20:54:00,43.0,34.0,-100.00,South,185,7.0,11.0,70,0.00,,,0.00,0.000000,,2013-09-19 02:54:00,
2013-09-18 21:54:00,41.0,35.0,-100.00,South,172,5.0,11.0,78,0.00,,,0.00,0.000000,,2013-09-19 03:54:00,
2013-09-18 22:25:00,41.0,35.0,-100.00,South,172,5.0,11.0,78,0.00,,,0.00,0.000000,,2013-09-19 04:25:00,
2013-09-18 22:34:00,41.0,35.0,-100.00,South,172,5.0,11.0,78,0.00,,,0.00,0.000000,,2013-09-19 04:34:00,
2013-09-18 22:44:00,41.0,35.0,-100.00,South,172,5.0,11.0,78,0.00,,,0.00,0.000000,,2013-09-19 04:44:00,
2013-09-18 23:23:00,39.0,34.0,-100.00,NNE,26,2.0,10.0,83,0.00,,,0.00,0.000000,,2013-09-19 05:23:00,
2013-09-18 23:34:00,39.0,34.0,-100.00,NNE,26,2.0,10.0,83,0.00,,,0.00,0.000000,,2013-09-19 05:34:00,
2013-09-18 23:43:00,39.0,34.0,-100.00,NNE,26,2.0,10.0,83,0.00,,,0.00,0.000000,,2013-09-19 05:43:00,
2013-09-18 23:52:00,39.0,34.0,-100.00,NNE,26,2.0,10.0,83,0.00,,,0.00,0.000000,,2013-09-19 05:52:00,